Location: Krakow
(50.0830°N, 19.9170°E)
Time: 06:23:14
(UTC+02:00)

S-56A Canister/Altair - Pass Details

Date: 30 November 2023
Orbit: 638 x 2488 km, 38.9° (Epoch: 24 May)

Event Time Altitude Azimuth Distance (km) Brightness Sun altitude
Rises 17:14:53 0° 260° (W) 3,303 12.7 -14.3°
Reaches altitude 10° 17:17:37 10° 244° (WSW) 2,561 11.6 -14.7°
Maximum altitude 17:22:08 22° 196° (SSW) 2,178 10.2 -15.4°
Drops below altitude 10° 17:27:58 10° 150° (SSE) 3,410 10.7 -16.3°
Sets 17:32:20 0° 137° (SE) 4,755 11.3 -17.0°
